Terminal Aerodrome Forecast
Issued by NWS Salt Lake City, UT

Home | Current Version | Previous Version | Text Only | Print | Product List | Glossary On
Versions: 1 2 3 4 5 6 7 8 9 10 11 12 13 14 15 16 17 18 19 20 21 22 23 24 25 26 27 28 29 30 31 32 33 34 35 36 37 38 39 40 41 42 43 44 45 46 47 48 49 50
000
FTUS45 KSLC 211429 AAB
TAFSLC
TAF AMD
KSLC 211429Z 2114/2218 16011G17KT P6SM -RA BKN100
     FM211600 18009KT P6SM VCSH SCT060 BKN080
      TEMPO 2116/2120 -SHRA OVC060
     FM212000 16009KT P6SM VCTS SCT060CB BKN080
     FM220200 16004KT P6SM BKN080
     FM221100 16006KT P6SM VCSH OVC070=

USA.gov is the U.S. government's official web portal to all federal, state and local government web resources and services.